Weather History for Clemson, SC

Change the Weather History Date:

Sunday, March 3, 2013

  Actual Average Record
Temperature  
Mean Temperature 40 °F -  
Max Temperature 50 °F 62 °F 81 °F (1976)
Min Temperature 30 °F 37 °F 4 °F (1980)
Degree Days  
Heating Degree Days 25    
Moisture  
Dew Point 15 °F    
Average Humidity 41    
Maximum Humidity 61    
Minimum Humidity 23    
Precipitation  
Precipitation 0.00 in - - ()
Sea Level Pressure  
Sea Level Pressure 29.97 in    
Wind  
Wind Speed 6 mph (WNW)    
Max Wind Speed 14 mph    
Max Gust Speed 22 mph    
Visibility 10 miles    
Events      
Averages and records for this station are not official NWS values.
T = Trace of Precipitation, MM = Missing Value Source: NWS Daily Summary

Daily Weather History Graph

Daily Weather History Graph

Search for Another Location

Airport:

Trip Planner

Search our weather history database for the weather conditions in past years. The results will help you decide how hot, cold, wet, or windy it might be!

Date:

Astronomy

Mar. 03, 2013 Rise Set
Actual Time 6:57 AM EST 6:29 PM EST
Civil Twilight 6:32 AM EST 6:54 PM EST
Nautical Twilight 6:03 AM EST 7:23 PM EST
Astronomical Twilight 5:34 AM EST 7:53 PM EST
Moon No Moon Rise 10:28 AM EST (3/3)
Length of Visible Light 12h 22m
Length of Day
11h 31m
Waning Gibbous, 64% of the Moon is Illuminated
Mar 3
Waning Gibbous
Mar 4
Last Quarter
Mar 11
New
Mar 19
First Quarter
Mar 27
Full

Hourly Weather History & Observations

Time (EST) Temp. Windchill Dew Point Humidity Pressure Visibility Wind Dir Wind Speed Gust Speed Precip Events Conditions
12:54 AM 33.1 °F 28.7 °F 18.0 °F 54% 29.95 in 10.0 mi West 4.6 mph - N/A   Clear
1:54 AM 32.0 °F 26.4 °F 18.0 °F 56% 29.96 in 10.0 mi WNW 5.8 mph - N/A   Clear
2:54 AM 30.9 °F 25.2 °F 18.0 °F 59% 29.95 in 10.0 mi West 5.8 mph - N/A   Clear
3:54 AM 30.0 °F 25.2 °F 18.0 °F 61% 29.94 in 10.0 mi West 4.6 mph - N/A   Clear
4:54 AM 30.0 °F 24.1 °F 17.1 °F 59% 29.95 in 10.0 mi WNW 5.8 mph - N/A   Clear
5:54 AM 30.0 °F 24.1 °F 16.0 °F 56% 29.96 in 10.0 mi WNW 5.8 mph - N/A   Clear
7:54 AM 32.0 °F 27.5 °F 17.1 °F 54% 29.99 in 10.0 mi WNW 4.6 mph - N/A   Clear
8:54 AM 36.0 °F 33.3 °F 17.1 °F 46% 30.00 in 10.0 mi North 3.5 mph - N/A   Clear
9:54 AM 37.9 °F 35.5 °F 16.0 °F 41% 30.00 in 10.0 mi North 3.5 mph - N/A   Clear
10:54 AM 39.9 °F 37.8 °F 12.9 °F 33% 29.99 in 10.0 mi NNE 3.5 mph - N/A   Clear
11:54 AM 41.0 °F - 14.0 °F 33% 29.98 in 10.0 mi Calm Calm - N/A   Clear
12:54 PM 43.0 °F 39.5 °F 16.0 °F 34% 29.96 in 10.0 mi SSE 5.8 mph - N/A   Clear
1:54 PM 46.0 °F 43.9 °F 15.1 °F 29% 29.94 in 10.0 mi NW 4.6 mph - N/A   Clear
2:54 PM 46.9 °F - 12.9 °F 25% 29.91 in 10.0 mi Variable 4.6 mph - N/A   Clear
3:54 PM 48.9 °F - 12.9 °F 24% 29.91 in 10.0 mi WSW 10.4 mph - N/A   Clear
4:54 PM 50.0 °F - 12.9 °F 23% 29.91 in 10.0 mi SW 8.1 mph - N/A   Clear
5:54 PM 46.0 °F 39.9 °F 14.0 °F 28% 29.94 in 10.0 mi NW 13.8 mph 21.9 mph N/A   Clear
6:54 PM 41.0 °F 34.7 °F 12.9 °F 32% 29.97 in 10.0 mi WNW 10.4 mph - N/A   Clear
7:54 PM 37.9 °F 30.5 °F 12.9 °F 36% 30.00 in 10.0 mi WNW 11.5 mph - N/A   Clear
8:54 PM 36.0 °F 29.6 °F 14.0 °F 41% 30.02 in 10.0 mi WNW 8.1 mph - N/A   Clear
9:54 PM 35.1 °F 28.6 °F 12.9 °F 40% 30.03 in 10.0 mi West 8.1 mph - N/A   Clear
10:54 PM 34.0 °F 28.0 °F 12.9 °F 42% 30.03 in 10.0 mi WNW 6.9 mph - N/A   Clear
11:54 PM 32.0 °F 26.4 °F 12.9 °F 45% 30.04 in 10.0 mi West 5.8 mph - N/A   Clear